Total_Precipitation_Accumulation
2.03 2.19 2.13 2.06 2.03 2.04 2.11 2.21 2.27 2.14 1.84 1.37 1.21 1.20 1.24 1.32 1.67 1.55 1.41 1.41 1.27 1.18 1.10 1.09 1.15 1.28 1.46 1.73 1.96 2.14 2.23 2.31 2.37 2.52 2.65 2.61 2.69 2.75
1.84 1.96 2.09 2.08 2.07 2.05 2.12 2.15 2.14 2.13 1.99 1.56 1.28 1.16 1.26 1.20 1.42 1.20 1.30 1.50 1.28 1.11 1.04 1.00 1.02 1.12 1.23 1.40 1.46 1.43 1.43 1.46 1.62 1.93 2.11 2.06 2.04 2.16
1.62 1.66 1.82 1.93 2.04 2.05 2.06 2.07 2.11 2.08 1.94 1.69 1.35 1.19 1.33 1.36 1.40 1.21 1.18 1.23 1.16 1.12 1.05 0.98 0.94 1.00 1.02 1.14 1.26 1.17 1.08 1.05 1.12 1.35 1.59 1.68 1.63 1.60
1.48 1.54 1.58 1.60 1.70 1.83 1.95 1.93 1.99 2.03 1.99 1.88 1.58 1.36 1.37 1.46 1.63 1.59 1.44 1.33 1.31 1.41 1.34 1.18 1.07 1.06 1.08 1.10 1.20 1.16 0.96 0.91 0.90 0.97 1.20 1.46 1.57 1.55
1.25 1.32 1.35 1.45 1.59 1.60 1.67 1.75 1.82 1.86 1.97 1.93 1.82 1.71 1.56 1.50 1.59 1.57 1.60 1.72 1.64 1.61 1.64 1.45 1.29 1.20 1.16 1.17 1.20 1.20 1.07 0.96 0.93 0.94 0.99 1.16 1.34 1.46
1.11 1.18 1.24 1.30 1.40 1.46 1.48 1.61 1.74 1.82 1.85 1.83 1.77 1.70 1.65 1.62 1.62 1.62 1.70 1.84 1.91 1.75 1.68 1.57 1.53 1.43 1.31 1.25 1.20 1.21 1.21 1.11 1.06 1.08 1.05 1.07 1.23 1.33
1.04 1.06 1.10 1.11 1.16 1.22 1.21 1.39 1.54 1.72 1.79 1.82 1.73 1.62 1.56 1.58 1.58 1.59 1.68 1.90 1.97 1.96 1.90 1.74 1.60 1.42 1.35 1.30 1.24 1.24 1.26 1.19 1.14 1.17 1.19 1.15 1.21 1.31
0.95 0.98 1.06 1.10 1.06 1.02 1.00 1.07 1.20 1.32 1.51 1.64 1.68 1.60 1.52 1.50 1.62 1.74 1.73 1.88 2.01 1.90 1.79 1.84 1.73 1.61 1.45 1.31 1.36 1.37 1.31 1.25 1.19 1.17 1.22 1.24 1.23 1.32
0.78 0.91 1.02 1.06 1.10 1.10 0.99 0.98 0.98 1.01 1.13 1.31 1.44 1.45 1.45 1.48 1.60 1.72 1.80 1.87 1.79 1.83 1.79 1.88 1.80 1.64 1.44 1.41 1.50 1.38 1.33 1.30 1.31 1.30 1.28 1.25 1.25 1.31
0.69 0.81 0.96 1.07 1.13 1.15 1.09 1.14 1.08 0.95 0.94 1.01 1.18 1.29 1.33 1.51 1.70 1.87 1.99 1.99 1.88 1.83 1.78 1.83 1.72 1.55 1.39 1.36 1.49 1.37 1.27 1.23 1.23 1.31 1.34 1.28 1.27 1.33
0.70 0.76 0.93 1.01 1.17 1.23 1.15 1.21 1.19 0.97 0.90 1.00 1.04 1.14 1.28 1.45 1.67 1.89 1.98 1.99 1.97 1.85 1.65 1.54 1.45 1.48 1.47 1.38 1.36 1.36 1.25 1.16 1.09 1.10 1.13 1.15 1.19 1.33
0.75 0.77 1.00 1.07 1.17 1.15 1.08 1.26 1.35 1.16 0.91 0.90 0.99 1.12 1.24 1.40 1.66 1.83 2.06 2.08 1.90 1.81 1.62 1.46 1.44 1.55 1.72 1.55 1.33 1.23 1.16 1.20 1.19 1.16 1.14 1.17 1.27 1.27
0.61 0.67 0.68 0.86 0.93 0.98 1.05 1.11 1.27 1.16 1.01 1.10 1.20 1.22 1.32 1.39 1.53 1.66 1.89 2.07 2.01 1.78 1.60 1.59 1.55 1.53 1.57 1.50 1.37 1.23 1.12 1.10 1.12 1.15 1.20 1.26 1.33 1.31
0.52 0.58 0.64 0.78 0.83 0.87 0.90 0.94 1.04 1.07 1.09 1.24 1.27 1.17 1.21 1.29 1.37 1.51 1.65 1.76 1.65 1.59 1.49 1.44 1.43 1.35 1.33 1.26 1.20 1.20 1.19 1.12 1.09 1.12 1.13 1.32 1.38 1.40
0.52 0.62 0.65 0.74 0.69 0.70 0.79 0.83 0.90 1.09 1.22 1.19 1.18 1.11 1.09 1.15 1.21 1.37 1.52 1.63 1.59 1.45 1.32 1.24 1.24 1.24 1.23 1.18 1.07 1.02 1.07 1.09 1.03 1.04 1.10 1.15 1.18 1.28
0.55 0.62 0.67 0.70 0.66 0.67 0.74 0.82 0.91 1.09 1.26 1.13 1.02 1.01 1.03 1.13 1.22 1.25 1.32 1.37 1.51 1.52 1.37 1.27 1.25 1.29 1.26 1.13 1.08 1.02 0.93 0.96 0.99 1.04 1.08 1.10 1.11 1.15
0.59 0.66 0.76 0.84 0.82 0.82 0.88 0.92 0.95 0.98 1.06 1.00 1.00 1.07 1.14 1.16 1.21 1.28 1.29 1.27 1.28 1.29 1.31 1.29 1.28 1.34 1.37 1.28 1.18 1.04 0.99 0.92 0.94 1.07 1.19 1.22 1.17 1.17
0.73 0.73 0.84 0.98 1.03 1.04 1.07 1.08 1.10 1.06 1.08 1.06 1.10 1.13 1.14 1.13 1.15 1.25 1.35 1.38 1.29 1.16 1.11 1.12 1.20 1.32 1.41 1.40 1.26 1.10 1.04 1.02 1.02 1.05 1.08 1.13 1.12 1.12
0.73 0.76 0.95 1.02 1.01 1.03 1.09 1.13 1.07 0.97 1.00 1.05 1.04 1.04 1.05 1.05 1.07 1.12 1.20 1.26 1.26 1.18 1.10 1.09 1.17 1.29 1.34 1.23 1.10 0.99 1.01 1.04 1.12 1.12 1.05 0.99 0.96 0.96
0.80 0.96 1.14 1.19 1.14 1.09 1.06 1.02 0.94 0.87 0.87 0.90 0.95 0.98 1.03 1.07 1.08 1.07 1.08 1.10 1.13 1.13 1.16 1.15 1.18 1.24 1.31 1.25 1.11 0.96 0.96 1.05 1.10 1.14 1.10 1.08 1.09 1.14
0.83 0.98 1.11 1.21 1.15 1.03 0.96 0.93 0.89 0.87 0.85 0.87 0.92 0.98 1.00 1.03 1.02 1.01 1.00 1.06 1.09 1.06 1.05 1.02 1.03 1.25 1.33 1.40 1.35 1.09 0.98 1.11 1.23 1.21 1.19 1.22 1.22 1.14
0.80 0.83 0.87 0.88 0.84 0.83 0.87 0.86 0.86 0.89 0.89 0.88 0.92 0.95 1.01 1.08 1.07 1.03 1.02 1.02 1.03 1.01 0.97 0.95 1.03 1.23 1.34 1.41 1.30 1.12 0.99 1.03 1.23 1.37 1.35 1.31 1.27 1.22
0.81 0.79 0.79 0.81 0.81 0.79 0.82 0.84 0.86 0.87 0.89 0.91 0.97 1.00 1.02 1.04 1.10 1.11 1.07 1.06 1.07 1.06 1.06 1.08 1.09 1.22 1.33 1.35 1.31 1.20 1.10 1.06 1.10 1.13 1.15 1.25 1.23 1.15